EW7602 Weather Reports


time (UTC)temp
C
wind
direction
speed
KPH
gust
KPH
rain 1hr
cm
rain 24hr
cm
rain mn
cm
humidity
%
barometer
mb
20260506192813 6 350 1.6 6.4 0.05 2.26 1.78 95 1008.0
20260506192054 6 266 1.6 6.4 0.03 2.34 1.75 95 1008.2
20260506191551 6 324 3.2 8.0 0.03 2.34 1.75 95 1008.0
20260506191049 6 49 1.6 8.0 0.03 2.34 1.75 95 1007.9
20260506190809 6 76 0.0 4.8 0.03 2.34 1.75 95 1007.9
20260506190049 6 329 1.6 3.2 0.05 2.36 1.75 95 1008.2
20260506185547 6 15 0.0 6.4 0.05 2.36 1.75 95 1008.2
20260506185041 6 17 1.6 6.4 0.05 2.36 1.75 95 1008.3
20260506184535 6 342 1.6 4.8 0.03 2.34 1.73 95 1008.5
20260506184029 6 331 1.6 6.4 0.05 2.34 1.73 95 1008.5
20260506183522 6 320 0.0 6.4 0.05 2.34 1.73 95 1008.6
20260506183018 6 297 1.6 4.8 0.05 2.34 1.73 95 1008.6
20260506182512 6 326 1.6 8.0 0.08 2.34 1.73 95 1008.7
20260506182007 6 289 0.0 8.0 0.10 2.34 1.73 95 1008.7
20260506181500 6 299 0.0 1.6 0.10 2.34 1.73 95 1008.9
20260506180959 6 316 0.0 3.2 0.10 2.34 1.73 95 1008.9
20260506180458 6 345 0.0 3.2 0.10 2.31 1.70 95 1008.9
20260506180219 6 321 0.0 4.8 0.10 2.31 1.70 95 1009.0
20260506175457 6 30 0.0 4.8 0.10 2.31 1.70 95 1009.0
20260506175223 6 36 0.0 4.8 0.13 2.31 1.70 95 1009.0
20260506174457 6 302 0.0 0.0 0.13 2.31 1.70 95 1009.2
20260506173956 6 307 0.0 0.0 0.13 2.29 1.68 95 1009.1
20260506173453 6 306 0.0 3.2 0.15 2.29 1.68 95 1009.0
20260506172953 6 273 0.0 4.8 0.13 2.26 1.68 95 1009.1
20260506172449 6 323 0.0 4.8 0.15 2.26 1.65 95 1009.1
20260506171947 6 261 0.0 4.8 0.15 2.24 1.63 95 1009.3
20260506171449 6 278 1.6 4.8 0.18 2.24 1.63 95 1009.1
20260506171210 6 23 1.6 8.0 0.18 2.24 1.63 95 1009.0
20260506170446 6 23 1.6 8.0 0.18 2.21 1.60 95 1009.1
20260506170435 6 323 0.0 3.2 0.18 2.21 1.60 95 1009.1
20260506165444 6 336 0.0 8.0 0.20 2.21 1.60 95 1009.3
20260506164942 6 323 1.6 8.0 0.20 2.18 1.57 95 1009.3
20260506164441 6 219 1.6 8.0 0.20 2.18 1.57 95 1009.2
20260506163937 6 18 1.6 6.4 0.20 2.16 1.55 95 1009.3
20260506163437 6 62 0.0 4.8 0.20 2.13 1.55 95 1009.4
20260506162936 6 13 0.0 4.8 0.23 2.13 1.52 95 1009.4
20260506162436 6 328 1.6 6.4 0.23 2.11 1.50 95 1009.5
20260506161937 6 295 0.0 6.4 0.20 2.08 1.47 95 1009.4
20260506161435 6 291 0.0 4.8 0.20 2.06 1.47 95 1009.5
20260506160935 6 50 0.0 4.8 0.23 2.06 1.45 95 1009.5
20260506160434 6 37 1.6 12.9 0.20 2.03 1.42 95 1009.5
20260506155935 6 288 3.2 12.9 0.20 2.03 1.42 95 1009.6
20260506155436 6 78 1.6 9.7 0.20 2.01 1.40 95 1009.7
20260506154934 6 46 1.6 9.7 0.20 1.98 1.40 95 1009.8
20260506154916 6 359 3.2 8.0 0.20 1.96 1.35 95 1009.7
20260506154527 6 13 1.6 8.0 0.20 1.98 1.37 95 1009.8
20260506153656 6 314 1.6 6.4 0.18 1.93 1.32 95 1009.6
20260506152935 6 321 1.6 4.8 0.15 1.91 1.30 95 1009.7
20260506152435 6 291 0.0 3.2 0.15 1.88 1.27 95 1009.8
20260506151933 6 311 0.0 3.2 0.18 1.88 1.27 95 1009.5
20260506151433 6 267 1.6 6.4 0.15 1.85 1.24 95 1009.5
20260506150933 6 297 1.6 6.4 0.15 1.83 1.22 95 1009.5
20260506150433 6 284 1.6 4.8 0.15 1.83 1.22 95 1009.4
20260506150143 6 35 0.0 3.2 0.13 1.80 1.19 95 1009.3
20260506145417 6 315 0.0 3.2 0.15 1.80 1.19 95 1009.3
20260506144912 6 238 1.6 4.8 0.13 1.78 1.17 95 1009.4
20260506144406 6 339 1.6 4.8 0.13 1.78 1.17 95 1009.4
20260506143900 6 338 3.2 11.3 0.10 1.75 1.14 95 1009.4
20260506143354 6 342 1.6 11.3 0.10 1.75 1.14 94 1009.4
20260506143109 6 27 1.6 8.0 0.08 1.73 1.14 94 1009.5
20260506142342 6 27 1.6 6.4 0.08 1.73 1.12 94 1009.7
20260506141836 6 5 0.0 3.2 0.05 1.70 1.09 94 1009.8
20260506141332 6 354 1.6 6.4 0.05 1.70 1.09 94 1009.8
20260506140823 6 312 3.2 9.7 0.05 1.68 1.07 94 1009.6
20260506140318 6 13 3.2 9.7 0.05 1.68 1.07 94 1009.4
20260506140033 6 304 1.6 9.7 0.05 1.68 1.07 94 1009.7
20260506135306 6 255 1.6 9.7 0.03 1.65 1.04 94 1009.5
20260506134800 6 20 1.6 8.0 0.05 1.65 1.04 94 1009.2
20260506134255 6 33 1.6 8.0 0.05 1.65 1.04 93 1009.3
20260506133748 6 293 1.6 6.4 0.08 1.65 1.04 94 1009.5
20260506133242 6 321 3.2 14.5 0.10 1.65 1.04 94 1009.6
20260506132735 6 31 3.2 14.5 0.10 1.65 1.04 93 1009.6
20260506132230 6 34 3.2 8.0 0.13 1.65 1.04 94 1009.6
20260506131724 6 63 1.6 8.0 0.15 1.65 1.04 94 1009.6
20260506131218 6 34 1.6 6.4 0.15 1.65 1.04 94 1009.8
20260506130713 6 30 1.6 6.4 0.15 1.63 1.02 94 1009.9
20260506130206 6 29 1.6 4.8 0.15 1.63 1.02 94 1009.9
20260506125919 6 39 3.2 8.0 0.18 1.63 1.02 93 1010.2
20260506125153 6 32 3.2 8.0 0.18 1.63 1.02 93 1009.9
20260506124648 6 24 1.6 6.4 0.15 1.60 0.99 94 1010.2
20260506124405 7 107 3.2 11.3 0.15 1.57 0.97 94 1010.2
20260506123635 7 44 3.2 11.3 0.15 1.55 0.94 94 1009.8
20260506123130 7 46 3.2 8.0 0.15 1.55 0.94 95 1009.6
20260506122625 7 34 1.6 8.0 0.18 1.55 0.94 95 1009.8
20260506122118 7 41 0.0 3.2 0.18 1.52 0.91 95 1010.1
20260506121837 7 32 0.0 3.2 0.18 1.50 0.89 95 1010.4
20260506121106 7 11 0.0 6.4 0.18 1.50 0.89 95 1010.4
20260506120600 7 341 1.6 6.4 0.15 1.47 0.86 95 1010.5
20260506120056 7 21 1.6 3.2 0.15 1.47 0.86 94 1010.5
20260506115551 7 30 1.6 3.2 0.13 1.45 0.84 94 1010.5
20260506115318 7 44 1.6 4.8 0.15 1.45 0.84 94 1010.5
20260506114549 7 68 0.0 4.8 0.15 1.45 0.84 94 1010.5
20260506114316 7 6 0.0 3.2 0.13 1.42 0.81 94 1010.7
20260506113546 7 4 0.0 3.2 0.10 1.40 0.79 94 1010.9
20260506113046 7 289 0.0 1.6 0.10 1.40 0.79 94 1010.7
20260506112547 7 16 0.0 3.2 0.08 1.37 0.76 94 1010.5
20260506112048 7 29 0.0 3.2 0.08 1.35 0.74 94 1010.3
20260506111547 7 304 1.6 6.4 0.05 1.32 0.71 94 1010.3
20260506111046 7 59 1.6 8.0 0.05 1.32 0.71 94 1009.8
20260506110541 7 34 1.6 8.0 0.05 1.32 0.71 94 1009.7
20260506110040 8 53 1.6 6.4 0.05 1.32 0.71 95 1009.9
20260506105538 8 342 1.6 9.7 0.05 1.32 0.71 95 1009.8
20260506105036 8 32 1.6 9.7 0.05 1.30 0.69 95 1010.1
20260506104536 8 28 1.6 9.7 0.08 1.30 0.69 95 1010.2
20260506104038 8 309 1.6 6.4 0.10 1.30 0.69 95 1010.2
20260506104026 8 323 0.0 6.4 0.10 1.30 0.69 95 1009.9
20260506103035 8 3 0.0 3.2 0.10 1.30 0.69 95 1009.9
20260506102534 8 283 0.0 3.2 0.13 1.30 0.69 95 1009.8
20260506102028 8 283 1.6 4.8 0.10 1.27 0.69 95 1009.9
20260506101528 8 297 1.6 4.8 0.10 1.27 0.66 95 1010.1
20260506101026 8 279 1.6 3.2 0.15 1.27 0.66 95 1010.1
20260506100528 8 296 0.0 3.2 0.15 1.27 0.66 95 1010.2
20260506100025 8 169 0.0 0.0 0.15 1.27 0.66 95 1010.1
20260506095525 8 169 1.6 6.4 0.15 1.27 0.66 95 1009.8
20260506095025 8 87 1.6 6.4 0.15 1.24 0.64 95 1009.5
20260506094526 8 240 0.0 3.2 0.13 1.22 0.61 95 1010.8
20260506094025 8 70 0.0 0.0 0.10 1.19 0.58 95 1010.4
20260506093524 8 70 0.0 0.0 0.10 1.19 0.58 95 1010.1
20260506093024 8 70 0.0 0.0 0.10 1.19 0.58 95 1010.1
20260506092524 8 70 0.0 1.6 0.10 1.17 0.56 95 1010.5
20260506092024 8 70 0.0 3.2 0.10 1.17 0.56 95 1010.5
20260506091747 8 75 1.6 3.2 0.10 1.17 0.56 95 1010.5
20260506091023 8 290 0.0 3.2 0.08 1.12 0.51 95 1010.8
20260506090521 8 46 0.0 3.2 0.08 1.12 0.51 95 1010.6
20260506090021 8 74 0.0 1.6 0.08 1.12 0.51 95 1010.4
20260506085521 8 74 0.0 4.8 0.10 1.12 0.51 95 1010.8
20260506085022 8 74 0.0 4.8 0.13 1.09 0.48 95 1010.6
20260506084521 8 76 0.0 3.2 0.13 1.09 0.48 95 1010.6
20260506084022 8 79 0.0 1.6 0.13 1.09 0.48 95 1010.5
20260506083745 8 49 0.0 1.6 0.13 1.09 0.48 94 1010.6
20260506083022 9 49 1.6 4.8 0.13 1.09 0.48 94 1010.6
20260506082522 9 70 1.6 4.8 0.10 1.07 0.46 94 1010.3
20260506082022 9 69 1.6 4.8 0.10 1.07 0.46 94 1010.6
20260506081521 9 39 1.6 4.8 0.10 1.07 0.46 94 1010.7
20260506081023 9 31 0.0 3.2 0.10 1.04 0.43 94 1010.6
20260506080521 9 3 1.6 8.0 0.10 1.04 0.43 94 1010.6
20260506073234 10 44 0.0 3.2 0.08 0.97 0.36 95 1010.4
20260506072513 10 42 1.6 4.8 0.08 0.97 0.36 95 1010.5
20260506072014 10 2 1.6 4.8 0.08 0.97 0.36 95 1010.5
20260506071512 10 25 0.0 3.2 0.08 0.97 0.36 95 1010.2
20260506071013 10 186 0.0 0.0 0.05 0.94 0.33 95 1010.2
20260506070509 10 186 0.0 1.6 0.05 0.94 0.33 95 1010.4
20260506062508 10 56 4.8 9.7 0.08 0.89 0.28 95 1010.1
20260506062232 10 63 3.2 9.7 0.10 0.89 0.28 96 1010.1
20260506061507 10 49 1.6 4.8 0.10 0.89 0.28 96 1010.4
20260506061001 10 31 0.0 3.2 0.10 0.89 0.28 95 1010.5
20260506060454 10 36 0.0 3.2 0.13 0.89 0.28 96 1010.4
20260506051356 11 56 0.0 0.0 0.18 0.79 0.18 95 1010.3
20260506050849 11 56 0.0 0.0 0.15 0.76 0.18 95 1010.6
20260506050344 11 56 0.0 3.2 0.13 0.74 0.13 95 1010.4
20260506045045 11 60 0.0 0.0 0.10 0.69 0.08 95 1010.3
20260506044319 11 60 0.0 0.0 0.10 0.69 0.08 95 1009.8
20260506043814 11 60 0.0 0.0 0.10 0.66 0.05 95 1009.7
20260506043306 11 60 0.0 1.6 0.10 0.66 0.05 95 1009.6
20260506042802 11 60 0.0 1.6 0.10 0.64 0.03 94 1010.1
20260506042255 11 73 0.0 1.6 0.13 0.64 0.03 94 1009.5
20260506042008 11 64 0.0 1.6 0.20 0.64 0.03 94 1009.9
20260506041504 11 64 0.0 1.6 0.18 0.61 0.00 94 1009.9
20260506040737 11 64 0.0 0.0 0.20 0.61 0.00 94 1010.4
20260506040232 11 64 0.0 1.6 0.20 0.61 0.00 94 1010.4
20260506035728 11 64 0.0 1.6 0.23 0.61 0.61 94 1010.1
20260506035221 11 64 0.0 1.6 0.20 0.58 0.58 93 1009.9
20260506034713 11 64 0.0 0.0 0.20 0.58 0.58 93 1010.2
20260506034430 11 64 0.0 1.6 0.18 0.56 0.56 93 1010.3
20260506033702 11 64 0.0 3.2 0.18 0.56 0.56 92 1010.1
20260506033157 11 64 1.6 3.2 0.18 0.56 0.56 91 1009.7
20260506032652 11 62 0.0 3.2 0.15 0.53 0.53 90 1009.8
20260506032411 12 354 0.0 4.8 0.10 0.48 0.51 87 1009.9
20260506031638 12 327 0.0 4.8 0.05 0.43 0.43 84 1009.9
20260506031131 12 324 1.6 3.2 0.05 0.43 0.43 85 1009.5
20260506030625 12 18 1.6 3.2 0.03 0.41 0.41 85 1009.4
20260506030121 13 7 0.0 3.2 0.03 0.41 0.41 84 1009.3
20260506025613 13 350 0.0 3.2 0.00 0.38 0.38 83 1009.1
20260506025108 13 349 0.0 3.2 0.00 0.38 0.38 79 1009.0
20260506024607 13 357 1.6 6.4 0.00 0.38 0.38 81 1008.9
20260506024107 13 338 1.6 8.0 0.00 0.38 0.38 79 1009.0
20260506023606 13 335 1.6 8.0 0.00 0.38 0.38 80 1009.0
20260506023106 13 336 1.6 6.4 0.00 0.38 0.38 82 1008.8
20260506022606 13 49 1.6 12.9 0.00 0.38 0.38 86 1008.9
20260506022106 13 351 1.6 12.9 0.00 0.38 0.38 87 1008.9
20260506021604 13 358 3.2 12.9 0.00 0.38 0.38 90 1008.5
20260506021323 13 51 4.8 12.9 0.00 0.38 0.38 94 1008.2
20260506020604 13 327 4.8 12.9 0.00 0.38 0.38 96 1008.6
20260506020106 13 2 1.6 6.4 0.00 0.38 0.38 96 1008.3
20260506015604 13 218 0.0 0.0 0.03 0.38 0.38 96 1008.2
20260506015104 13 218 0.0 0.0 0.03 0.38 0.38 96 1008.2
20260506014603 13 218 0.0 0.0 0.05 0.38 0.38 95 1008.1
20260506014325 13 218 0.0 0.0 0.05 0.38 0.38 95 1007.9
20260506013558 13 218 0.0 0.0 0.05 0.38 0.38 95 1007.8
20260506013056 13 218 0.0 0.0 0.08 0.38 0.38 95 1007.7
20260506012555 13 218 0.0 0.0 0.08 0.38 0.38 95 1007.6
20260506012053 13 218 0.0 0.0 0.08 0.38 0.38 95 1007.5
20260506011820 13 218 0.0 1.6 0.08 0.38 0.38 95 1007.3
20260506011050 14 218 0.0 1.6 0.08 0.38 0.38 95 1007.3
20260506010552 14 218 0.0 1.6 0.08 0.38 0.38 95 1007.1
20260506010047 14 218 0.0 1.6 0.08 0.38 0.38 94 1007.2
20260506005546 14 218 0.0 1.6 0.05 0.36 0.38 94 1007.2
20260506005043 14 218 0.0 1.6 0.05 0.36 0.36 94 1007.2
20260506004542 14 217 0.0 0.0 0.03 0.33 0.33 94 1007.1
20260506004042 14 218 0.0 1.6 0.03 0.33 0.33 93 1007.2
20260506003803 14 218 0.0 1.6 0.03 0.33 0.33 93 1007.1
20260506003534 14 218 0.0 0.0 0.00 0.30 0.30 93 1006.8
20260506002538 14 218 0.0 1.6 0.00 0.30 0.30 93 1006.7
20260506002038 14 218 0.0 1.6 0.00 0.30 0.30 93 1006.6
20260506001538 14 218 0.0 1.6 0.00 0.30 0.30 93 1006.5
20260506001037 14 218 0.0 4.8 0.00 0.30 0.30 93 1006.5
20260506000540 14 218 1.6 4.8 0.00 0.30 0.30 92 1006.6
20260506000038 15 217 1.6 1.6 0.00 0.30 0.30 92 1006.5
20260505235539 15 217 0.0 1.6 0.00 0.30 0.30 91 1006.6
20260505235038 15 217 0.0 1.6 0.00 0.30 0.30 90 1006.5
20260505234538 15 217 0.0 1.6 0.00 0.30 0.30 89 1006.4
20260505234303 15 217 0.0 1.6 0.00 0.30 0.30 90 1006.5
20260505233539 15 217 1.6 1.6 0.00 0.30 0.30 90 1006.7
20260505233037 15 218 0.0 1.6 0.00 0.30 0.30 90 1006.8
20260505232538 15 217 0.0 0.0 0.00 0.30 0.30 89 1006.7
20260505232039 16 217 0.0 1.6 0.00 0.30 0.30 88 1006.5
20260505231538 16 217 0.0 1.6 0.00 0.30 0.30 87 1006.3
20260505231036 16 237 0.0 4.8 0.00 0.30 0.30 86 1006.1
20260505231028 16 237 1.6 4.8 0.00 0.30 0.30 85 1006.0
20260505230035 16 212 1.6 4.8 0.00 0.30 0.30 86 1005.8
20260505230024 16 184 1.6 12.9 0.00 0.30 0.30 86 1005.8
20260505225029 16 187 3.2 12.9 0.00 0.30 0.30 86 1005.9
20260505224749 16 179 3.2 11.3 0.00 0.30 0.30 88 1005.9
20260505224255 16 192 3.2 8.0 0.00 0.30 0.30 91 1006.0
20260505223528 16 178 1.6 8.0 0.00 0.30 0.30 94 1006.0
20260505223028 16 217 0.0 4.8 0.00 0.30 0.30 95 1006.1
20260505222529 16 181 1.6 8.0 0.00 0.30 0.30 95 1006.2
20260505222027 16 181 4.8 20.9 0.00 0.30 0.30 95 1006.3
20260505221528 16 184 3.2 20.9 0.00 0.30 0.30 95 1006.3
20260505221248 16 218 0.0 4.8 0.00 0.30 0.30 95 1006.1
20260505220514 16 179 0.0 4.8 0.00 0.30 0.30 96 1005.9
20260505220008 16 179 1.6 6.4 0.00 0.30 0.30 95 1005.9
20260505215503 16 186 3.2 8.0 0.00 0.30 0.30 95 1005.9
20260505214957 16 167 3.2 8.0 0.00 0.30 0.30 95 1005.8
20260505214450 16 187 1.6 6.4 0.00 0.30 0.30 96 1005.6
20260505213945 15 132 1.6 6.4 0.00 0.30 0.30 96 1005.7
20260505213438 15 213 1.6 6.4 0.00 0.30 0.30 96 1005.8
20260505212932 15 141 1.6 6.4 0.05 0.30 0.30 95 1005.7
20260505212425 15 162 1.6 6.4 0.05 0.30 0.30 95 1005.8
20260505211920 15 150 1.6 6.4 0.08 0.30 0.30 95 1005.7
20260505211414 15 138 1.6 4.8 0.13 0.30 0.30 95 1005.6
20260505210907 15 202 1.6 4.8 0.15 0.30 0.30 95 1005.7
20260505210627 15 226 1.6 4.8 0.15 0.30 0.30 95 1005.5
20260505205856 15 186 1.6 4.8 0.15 0.30 0.30 95 1005.2
20260505205351 16 158 1.6 8.0 0.15 0.30 0.30 95 1005.2
20260505204846 16 167 1.6 8.0 0.15 0.30 0.30 95 1005.3
20260505204339 16 170 3.2 9.7 0.15 0.30 0.30 95 1005.2
20260505203834 15 166 3.2 11.3 0.15 0.30 0.30 95 1005.3
20260505203327 15 144 3.2 11.3 0.13 0.28 0.28 95 1005.1
20260505202822 15 336 1.6 8.0 0.10 0.25 0.25 95 1005.5
20260505202314 16 97 1.6 8.0 0.18 0.23 0.23 95 1005.6
20260505201808 16 278 3.2 8.0 0.18 0.20 0.23 95 1005.7
20260505201302 16 165 3.2 12.9 0.13 0.15 0.15 95 1005.6
20260505200757 16 302 3.2 12.9 0.13 0.15 0.15 95 1005.5
20260505200249 16 178 0.0 3.2 0.13 0.15 0.15 95 1003.9
20260505200011 16 215 1.6 6.4 0.15 0.15 0.15 95 1003.8
20260505195507 16 184 1.6 6.4 0.15 0.15 0.15 95 1003.9
20260505194729 16 231 1.6 6.4 0.15 0.15 0.15 95 1003.8
20260505194230 16 134 0.0 3.2 0.15 0.15 0.15 95 1003.8
20260505193947 16 145 1.6 4.8 0.15 0.15 0.15 95 1003.7
20260505193225 16 43 1.6 4.8 0.15 0.15 0.15 94 1003.7